Time,TemperatureF,DewpointF,PressureIn,WindDirection,WindDirectionDegrees,WindSpeedMPH,WindSpeedGustMPH,Humidity,HourlyPrecipIn,Conditions,Clouds,dailyrainin,SoftwareType,DateUTC
2013-03-21 00:00:00,53.2,-99.9,30.05,WNW,300,0.0,0.0,-999,-99.99,,,-99.99,,2013-03-21 07:00:00,
2013-03-21 00:05:00,53.2,-99.9,30.06,WSW,242,0.0,0.0,-999,-99.99,,,-99.99,,2013-03-21 07:05:00,
2013-03-21 00:10:00,53.1,-99.9,30.06,West,259,18.3,18.3,-999,-99.99,,,-99.99,,2013-03-21 07:10:00,
2013-03-21 00:15:00,53.1,-99.9,30.06,WSW,258,0.0,0.0,-999,-99.99,,,-99.99,,2013-03-21 07:15:00,
2013-03-21 00:20:00,53.1,-99.9,30.06,WSW,245,0.0,7.9,-999,-99.99,,,-99.99,,2013-03-21 07:20:00,
2013-03-21 00:25:00,53.2,-99.9,30.06,WSW,245,0.0,0.0,-999,-99.99,,,-99.99,,2013-03-21 07:25:00,
2013-03-21 00:30:00,53.1,-99.9,30.05,WSW,245,0.0,0.0,-999,-99.99,,,-99.99,,2013-03-21 07:30:00,
2013-03-21 00:35:00,53.2,-99.9,30.06,WSW,245,0.0,0.0,-999,-99.99,,,-99.99,,2013-03-21 07:35:00,
2013-03-21 00:40:00,53.2,-99.9,30.05,WSW,245,0.0,0.0,-999,-99.99,,,-99.99,,2013-03-21 07:40:00,
2013-03-21 00:50:00,53.1,-99.9,30.05,WSW,245,0.0,0.0,-999,-99.99,,,-99.99,,2013-03-21 07:50:00,
2013-03-21 00:55:00,53.1,-99.9,30.05,WSW,245,0.0,0.0,-999,-99.99,,,-99.99,,2013-03-21 07:55:00,
2013-03-21 01:00:00,53.1,-99.9,30.05,WSW,245,0.0,0.0,-999,-99.99,,,-99.99,,2013-03-21 08:00:00,
2013-03-21 01:10:00,53.0,-99.9,30.04,WSW,245,0.0,0.0,-999,-99.99,,,-99.99,,2013-03-21 08:10:00,
2013-03-21 01:15:00,52.8,-99.9,30.04,WSW,245,0.0,0.0,-999,-99.99,,,-99.99,,2013-03-21 08:15:00,
2013-03-21 01:20:00,52.8,-99.9,30.04,SE,132,0.0,0.0,-999,-99.99,,,-99.99,,2013-03-21 08:20:00,
2013-03-21 01:25:00,52.9,-99.9,30.04,SE,132,0.0,0.0,-999,-99.99,,,-99.99,,2013-03-21 08:25:00,
2013-03-21 01:30:00,52.7,-99.9,30.04,SE,132,0.0,0.0,-999,-99.99,,,-99.99,,2013-03-21 08:30:00,
2013-03-21 01:40:00,52.5,-99.9,30.04,SE,132,0.0,0.0,-999,-99.99,,,-99.99,,2013-03-21 08:40:00,
2013-03-21 01:45:00,52.4,-99.9,30.04,SE,132,0.0,0.0,-999,-99.99,,,-99.99,,2013-03-21 08:45:00,
2013-03-21 01:50:00,52.6,-99.9,30.04,East,81,0.0,0.0,-999,-99.99,,,-99.99,,2013-03-21 08:50:00,
2013-03-21 02:00:00,52.1,-99.9,30.04,East,81,0.0,0.0,-999,-99.99,,,-99.99,,2013-03-21 09:00:00,
2013-03-21 02:05:00,52.0,-99.9,30.04,East,81,0.0,0.0,-999,-99.99,,,-99.99,,2013-03-21 09:05:00,
2013-03-21 02:10:00,51.9,-99.9,30.04,East,81,0.0,0.0,-999,-99.99,,,-99.99,,2013-03-21 09:10:00,
2013-03-21 02:20:00,51.8,-99.9,30.04,East,81,0.0,0.0,-999,-99.99,,,-99.99,,2013-03-21 09:20:00,
2013-03-21 02:30:00,51.7,-99.9,30.04,East,81,0.0,0.0,-999,-99.99,,,-99.99,,2013-03-21 09:30:00,
2013-03-21 02:35:00,51.2,-99.9,30.04,East,81,0.0,0.0,-999,-99.99,,,-99.99,,2013-03-21 09:35:00,
2013-03-21 02:40:00,51.4,-99.9,30.04,East,81,0.0,0.0,-999,-99.99,,,-99.99,,2013-03-21 09:40:00,
2013-03-21 02:45:00,51.3,-99.9,30.04,East,81,0.0,0.0,-999,-99.99,,,-99.99,,2013-03-21 09:45:00,
2013-03-21 02:50:00,51.4,-99.9,30.04,East,81,0.0,0.0,-999,-99.99,,,-99.99,,2013-03-21 09:50:00,
2013-03-21 02:55:00,51.2,-99.9,30.04,East,81,0.0,0.0,-999,-99.99,,,-99.99,,2013-03-21 09:55:00,
2013-03-21 03:00:00,51.4,-99.9,30.04,East,81,0.0,0.0,-999,-99.99,,,-99.99,,2013-03-21 10:00:00,
2013-03-21 03:10:00,51.7,-99.9,30.04,East,81,0.0,0.0,-999,-99.99,,,-99.99,,2013-03-21 10:10:00,
2013-03-21 03:15:00,51.5,-99.9,30.04,East,81,0.0,0.0,-999,-99.99,,,-99.99,,2013-03-21 10:15:00,
2013-03-21 03:20:00,51.3,-99.9,30.04,East,81,0.0,0.0,-999,-99.99,,,-99.99,,2013-03-21 10:20:00,
2013-03-21 03:25:00,51.1,-99.9,30.04,East,81,0.0,0.0,-999,-99.99,,,-99.99,,2013-03-21 10:25:00,
2013-03-21 03:30:00,51.1,-99.9,30.04,East,81,0.0,0.0,-999,-99.99,,,-99.99,,2013-03-21 10:30:00,
2013-03-21 03:35:00,51.4,-99.9,30.04,East,81,0.0,0.0,-999,-99.99,,,-99.99,,2013-03-21 10:35:00,
2013-03-21 03:40:00,51.3,-99.9,30.03,East,81,0.0,0.0,-999,-99.99,,,-99.99,,2013-03-21 10:40:00,
2013-03-21 03:45:00,51.3,-99.9,30.03,East,81,0.0,0.0,-999,-99.99,,,-99.99,,2013-03-21 10:45:00,
2013-03-21 03:50:00,50.7,-99.9,30.03,East,81,0.0,0.0,-999,-99.99,,,-99.99,,2013-03-21 10:50:00,
2013-03-21 03:55:00,50.6,-99.9,30.03,WSW,244,0.0,14.3,-999,-99.99,,,-99.99,,2013-03-21 10:55:00,
2013-03-21 04:00:00,50.3,-99.9,30.03,WSW,244,0.0,11.7,-999,-99.99,,,-99.99,,2013-03-21 11:00:00,
2013-03-21 04:05:00,50.4,-99.9,30.03,WSW,244,0.0,0.0,-999,-99.99,,,-99.99,,2013-03-21 11:05:00,
2013-03-21 04:10:00,50.2,-99.9,30.03,WSW,244,0.0,0.0,-999,-99.99,,,-99.99,,2013-03-21 11:10:00,
2013-03-21 04:15:00,49.7,-99.9,30.03,WNW,289,0.0,0.0,-999,-99.99,,,-99.99,,2013-03-21 11:15:00,
2013-03-21 04:20:00,49.8,-99.9,30.03,WNW,289,0.0,0.0,-999,-99.99,,,-99.99,,2013-03-21 11:20:00,
2013-03-21 04:25:00,50.1,-99.9,30.04,WNW,289,0.0,0.0,-999,-99.99,,,-99.99,,2013-03-21 11:25:00,
2013-03-21 04:30:00,49.7,-99.9,30.04,WNW,289,0.0,0.0,-999,-99.99,,,-99.99,,2013-03-21 11:30:00,
2013-03-21 04:35:00,49.3,-99.9,30.04,WNW,289,0.0,0.0,-999,-99.99,,,-99.99,,2013-03-21 11:35:00,
2013-03-21 04:40:00,49.2,-99.9,30.04,WNW,289,0.0,0.0,-999,-99.99,,,-99.99,,2013-03-21 11:40:00,
2013-03-21 04:45:00,49.3,-99.9,30.04,WNW,289,0.0,0.0,-999,-99.99,,,-99.99,,2013-03-21 11:45:00,
2013-03-21 04:50:00,48.9,-99.9,30.04,WNW,289,0.0,0.0,-999,-99.99,,,-99.99,,2013-03-21 11:50:00,
2013-03-21 04:55:00,49.2,-99.9,30.04,WNW,289,0.0,0.0,-999,-99.99,,,-99.99,,2013-03-21 11:55:00,
2013-03-21 05:00:00,49.1,-99.9,30.04,WNW,289,0.0,0.0,-999,-99.99,,,-99.99,,2013-03-21 12:00:00,
2013-03-21 05:10:00,49.0,-99.9,30.03,WNW,289,0.0,0.0,-999,-99.99,,,-99.99,,2013-03-21 12:10:00,
2013-03-21 05:15:00,49.0,-99.9,30.03,WNW,289,0.0,0.0,-999,-99.99,,,-99.99,,2013-03-21 12:15:00,
2013-03-21 05:20:00,48.4,-99.9,30.02,WNW,289,0.0,0.0,-999,-99.99,,,-99.99,,2013-03-21 12:20:00,
2013-03-21 05:25:00,48.7,-99.9,30.02,WNW,289,0.0,0.0,-999,-99.99,,,-99.99,,2013-03-21 12:25:00,
2013-03-21 05:30:00,48.7,-99.9,30.02,WNW,289,0.0,0.0,-999,-99.99,,,-99.99,,2013-03-21 12:30:00,
2013-03-21 05:35:00,48.8,-99.9,30.02,WNW,289,0.0,0.0,-999,-99.99,,,-99.99,,2013-03-21 12:35:00,
2013-03-21 05:40:00,48.5,-99.9,30.02,WNW,289,0.0,0.0,-999,-99.99,,,-99.99,,2013-03-21 12:40:00,
2013-03-21 05:45:00,48.2,-99.9,30.01,WNW,289,0.0,0.0,-999,-99.99,,,-99.99,,2013-03-21 12:45:00,
2013-03-21 05:50:00,48.4,-99.9,30.01,WNW,289,0.0,0.0,-999,-99.99,,,-99.99,,2013-03-21 12:50:00,
2013-03-21 05:55:00,48.0,-99.9,30.01,WNW,289,0.0,0.0,-999,-99.99,,,-99.99,,2013-03-21 12:55:00,
2013-03-21 06:00:00,48.5,-99.9,30.01,WNW,289,0.0,0.0,-999,-99.99,,,-99.99,,2013-03-21 13:00:00,
2013-03-21 06:10:00,48.5,-99.9,30.01,WNW,289,0.0,0.0,-999,-99.99,,,-99.99,,2013-03-21 13:10:00,
2013-03-21 06:15:00,47.8,-99.9,30.00,WNW,289,0.0,0.0,-999,-99.99,,,-99.99,,2013-03-21 13:15:00,
2013-03-21 06:20:00,47.6,-99.9,30.01,WNW,289,0.0,0.0,-999,-99.99,,,-99.99,,2013-03-21 13:20:00,
2013-03-21 06:25:00,47.1,-99.9,30.02,WNW,289,0.0,0.0,-999,-99.99,,,-99.99,,2013-03-21 13:25:00,
2013-03-21 06:30:00,47.1,-99.9,30.03,WNW,289,0.0,0.0,-999,-99.99,,,-99.99,,2013-03-21 13:30:00,
2013-03-21 06:35:00,47.3,-99.9,30.03,WNW,289,0.0,0.0,-999,-99.99,,,-99.99,,2013-03-21 13:35:00,
2013-03-21 06:40:00,47.1,-99.9,30.03,WNW,289,0.0,0.0,-999,-99.99,,,-99.99,,2013-03-21 13:40:00,
2013-03-21 06:50:00,47.6,-99.9,30.03,WNW,289,0.0,0.0,-999,-99.99,,,-99.99,,2013-03-21 13:50:00,
2013-03-21 06:55:00,47.2,-99.9,30.03,WNW,289,0.0,0.0,-999,-99.99,,,-99.99,,2013-03-21 13:55:00,
2013-03-21 07:00:00,47.0,-99.9,30.02,WNW,289,0.0,0.0,-999,-99.99,,,-99.99,,2013-03-21 14:00:00,
2013-03-21 07:05:00,47.0,-99.9,30.02,WNW,289,0.0,0.0,-999,-99.99,,,-99.99,,2013-03-21 14:05:00,
2013-03-21 07:10:00,47.3,-99.9,30.02,WNW,289,0.0,0.0,-999,-99.99,,,-99.99,,2013-03-21 14:10:00,
2013-03-21 07:20:00,46.7,-99.9,30.03,WNW,289,0.0,0.0,-999,-99.99,,,-99.99,,2013-03-21 14:20:00,
2013-03-21 07:30:00,46.4,-99.9,30.03,WNW,289,0.0,0.0,-999,-99.99,,,-99.99,,2013-03-21 14:30:00,
2013-03-21 07:40:00,46.2,-99.9,30.03,WNW,289,0.0,0.0,-999,-99.99,,,-99.99,,2013-03-21 14:40:00,
2013-03-21 07:50:00,46.7,-99.9,30.03,WNW,289,0.0,0.0,-999,-99.99,,,-99.99,,2013-03-21 14:50:00,
2013-03-21 07:55:00,46.4,-99.9,30.03,WNW,289,0.0,0.0,-999,-99.99,,,-99.99,,2013-03-21 14:55:00,
2013-03-21 08:00:00,47.0,-99.9,30.03,WNW,289,0.0,0.0,-999,-99.99,,,-99.99,,2013-03-21 15:00:00,
2013-03-21 08:10:00,47.2,-99.9,30.03,WNW,289,0.0,0.0,-999,-99.99,,,-99.99,,2013-03-21 15:10:00,
2013-03-21 08:20:00,46.4,-99.9,30.04,WNW,289,0.0,0.0,-999,-99.99,,,-99.99,,2013-03-21 15:20:00,
2013-03-21 08:30:00,46.7,-99.9,30.04,WNW,289,0.0,0.0,-999,-99.99,,,-99.99,,2013-03-21 15:30:00,
2013-03-21 08:40:00,46.9,-99.9,30.04,WNW,289,0.0,0.0,-999,-99.99,,,-99.99,,2013-03-21 15:40:00,
2013-03-21 08:50:00,47.1,-99.9,30.04,WNW,289,0.0,0.0,-999,-99.99,,,-99.99,,2013-03-21 15:50:00,
2013-03-21 08:55:00,46.9,-99.9,30.04,WNW,289,0.0,0.0,-999,-99.99,,,-99.99,,2013-03-21 15:55:00,
2013-03-21 09:00:00,46.8,-99.9,30.04,WNW,289,0.0,0.0,-999,-99.99,,,-99.99,,2013-03-21 16:00:00,
2013-03-21 09:10:00,46.9,-99.9,30.04,WNW,289,0.0,0.0,-999,-99.99,,,-99.99,,2013-03-21 16:10:00,
2013-03-21 09:20:00,47.0,-99.9,30.04,WNW,289,0.0,0.0,-999,-99.99,,,-99.99,,2013-03-21 16:20:00,
2013-03-21 09:25:00,47.0,-99.9,30.04,WNW,289,0.0,0.0,-999,-99.99,,,-99.99,,2013-03-21 16:25:00,
2013-03-21 09:30:00,47.1,-99.9,30.04,WNW,289,0.0,0.0,-999,-99.99,,,-99.99,,2013-03-21 16:30:00,
2013-03-21 09:40:00,47.2,-99.9,30.04,WNW,289,0.0,0.0,-999,-99.99,,,-99.99,,2013-03-21 16:40:00,
2013-03-21 09:50:00,47.2,-99.9,30.04,WNW,289,0.0,0.0,-999,-99.99,,,-99.99,,2013-03-21 16:50:00,
2013-03-21 10:00:00,47.5,-99.9,30.04,WNW,289,0.0,0.0,-999,-99.99,,,-99.99,,2013-03-21 17:00:00,
2013-03-21 10:10:00,47.8,-99.9,30.04,West,278,0.0,0.0,-999,-99.99,,,-99.99,,2013-03-21 17:10:00,
2013-03-21 10:20:00,48.0,-99.9,30.05,West,279,0.0,0.0,-999,-99.99,,,-99.99,,2013-03-21 17:20:00,
2013-03-21 10:30:00,48.3,-99.9,30.05,WSW,238,0.0,0.0,-999,-99.99,,,-99.99,,2013-03-21 17:30:00,
2013-03-21 10:40:00,48.4,-99.9,30.05,WSW,242,0.0,7.7,-999,-99.99,,,-99.99,,2013-03-21 17:40:00,
2013-03-21 10:50:00,48.8,-99.9,30.05,West,263,0.0,0.0,-999,-99.99,,,-99.99,,2013-03-21 17:50:00,
2013-03-21 10:55:00,49.0,-99.9,30.05,West,263,0.0,0.0,-999,-99.99,,,-99.99,,2013-03-21 17:55:00,
2013-03-21 11:00:00,49.1,-99.9,30.05,West,263,0.0,0.0,-999,-99.99,,,-99.99,,2013-03-21 18:00:00,
2013-03-21 11:10:00,49.2,-99.9,30.05,West,263,0.0,0.0,-999,-99.99,,,-99.99,,2013-03-21 18:10:00,
2013-03-21 11:20:00,49.6,-99.9,30.05,West,259,0.0,9.0,-999,-99.99,,,-99.99,,2013-03-21 18:20:00,
2013-03-21 11:30:00,49.9,-99.9,30.05,West,259,0.0,0.0,-999,-99.99,,,-99.99,,2013-03-21 18:30:00,
2013-03-21 11:40:00,50.2,-99.9,30.05,WSW,239,9.0,13.5,-999,-99.99,,,-99.99,,2013-03-21 18:40:00,
2013-03-21 11:50:00,50.5,-99.9,30.05,NW,320,0.0,8.5,-999,-99.99,,,-99.99,,2013-03-21 18:50:00,
2013-03-21 12:00:00,51.0,-99.9,30.05,WNW,289,0.0,12.2,-999,-99.99,,,-99.99,,2013-03-21 19:00:00,
2013-03-21 12:10:00,51.2,-99.9,30.04,WSW,238,0.0,15.6,-999,-99.99,,,-99.99,,2013-03-21 19:10:00,
2013-03-21 12:20:00,51.5,-99.9,30.04,West,262,0.0,0.0,-999,-99.99,,,-99.99,,2013-03-21 19:20:00,
2013-03-21 12:25:00,51.7,-99.9,30.04,WNW,297,6.9,13.5,-999,-99.99,,,-99.99,,2013-03-21 19:25:00,
2013-03-21 12:30:00,52.0,-99.9,30.04,WNW,286,16.6,19.8,-999,-99.99,,,-99.99,,2013-03-21 19:30:00,
2013-03-21 12:40:00,52.2,-99.9,30.04,WNW,297,8.7,13.5,-999,-99.99,,,-99.99,,2013-03-21 19:40:00,
2013-03-21 12:50:00,52.4,-99.9,30.03,WNW,283,8.7,8.7,-999,-99.99,,,-99.99,,2013-03-21 19:50:00,
2013-03-21 12:55:00,52.9,-99.9,30.03,WNW,290,0.0,8.7,-999,-99.99,,,-99.99,,2013-03-21 19:55:00,
2013-03-21 13:00:00,53.0,-99.9,30.03,WNW,283,13.8,13.8,-999,-99.99,,,-99.99,,2013-03-21 20:00:00,
2013-03-21 13:10:00,53.4,-99.9,30.03,West,269,9.0,19.3,-999,-99.99,,,-99.99,,2013-03-21 20:10:00,
2013-03-21 13:20:00,53.5,-99.9,30.02,West,269,7.7,14.5,-999,-99.99,,,-99.99,,2013-03-21 20:20:00,
2013-03-21 13:25:00,53.8,-99.9,30.02,WNW,286,0.0,11.4,-999,-99.99,,,-99.99,,2013-03-21 20:25:00,
2013-03-21 13:30:00,53.9,-99.9,30.02,West,279,0.0,0.0,-999,-99.99,,,-99.99,,2013-03-21 20:30:00,
2013-03-21 13:35:00,54.3,-99.9,30.02,West,271,19.2,22.2,-999,-99.99,,,-99.99,,2013-03-21 20:35:00,
2013-03-21 13:40:00,54.3,-99.9,30.02,WNW,295,0.0,0.0,-999,-99.99,,,-99.99,,2013-03-21 20:40:00,
2013-03-21 13:45:00,54.6,-99.9,30.02,West,275,6.4,8.4,-999,-99.99,,,-99.99,,2013-03-21 20:45:00,
2013-03-21 13:50:00,54.4,-99.9,30.01,WSW,238,0.0,11.3,-999,-99.99,,,-99.99,,2013-03-21 20:50:00,
2013-03-21 13:55:00,54.8,-99.9,30.01,West,269,0.0,9.0,-999,-99.99,,,-99.99,,2013-03-21 20:55:00,
2013-03-21 14:00:00,54.7,-99.9,30.01,West,269,0.0,0.0,-999,-99.99,,,-99.99,,2013-03-21 21:00:00,
2013-03-21 14:05:00,54.9,-99.9,30.01,SW,225,0.0,17.5,-999,-99.99,,,-99.99,,2013-03-21 21:05:00,
2013-03-21 14:10:00,55.1,-99.9,30.01,West,263,0.0,23.0,-999,-99.99,,,-99.99,,2013-03-21 21:10:00,
2013-03-21 14:15:00,55.2,-99.9,30.01,WSW,252,6.9,21.2,-999,-99.99,,,-99.99,,2013-03-21 21:15:00,
2013-03-21 14:20:00,55.3,-99.9,30.01,SW,232,0.0,12.9,-999,-99.99,,,-99.99,,2013-03-21 21:20:00,
2013-03-21 14:25:00,55.4,-99.9,30.00,WSW,244,0.0,0.0,-999,-99.99,,,-99.99,,2013-03-21 21:25:00,
2013-03-21 14:30:00,55.6,-99.9,30.00,WNW,293,8.9,18.5,-999,-99.99,,,-99.99,,2013-03-21 21:30:00,
2013-03-21 14:35:00,55.4,-99.9,30.00,SW,230,0.0,0.0,-999,-99.99,,,-99.99,,2013-03-21 21:35:00,
2013-03-21 14:40:00,55.9,-99.9,30.00,WNW,297,7.6,21.7,-999,-99.99,,,-99.99,,2013-03-21 21:40:00,
2013-03-21 14:45:00,55.9,-99.9,29.99,West,265,0.0,13.4,-999,-99.99,,,-99.99,,2013-03-21 21:45:00,
2013-03-21 14:50:00,56.0,-99.9,29.99,WSW,254,0.0,19.2,-999,-99.99,,,-99.99,,2013-03-21 21:50:00,
2013-03-21 14:55:00,55.9,-99.9,29.98,WSW,252,0.0,11.9,-999,-99.99,,,-99.99,,2013-03-21 21:55:00,
2013-03-21 15:00:00,56.1,-99.9,29.98,West,266,0.0,12.9,-999,-99.99,,,-99.99,,2013-03-21 22:00:00,
2013-03-21 15:05:00,56.7,-99.9,29.98,West,271,12.2,16.3,-999,-99.99,,,-99.99,,2013-03-21 22:05:00,
2013-03-21 15:10:00,56.9,-99.9,29.98,West,269,15.4,23.0,-999,-99.99,,,-99.99,,2013-03-21 22:10:00,
2013-03-21 15:15:00,56.5,-99.9,29.98,WSW,249,0.0,0.0,-999,-99.99,,,-99.99,,2013-03-21 22:15:00,
2013-03-21 15:20:00,56.8,-99.9,29.98,WSW,241,11.6,16.4,-999,-99.99,,,-99.99,,2013-03-21 22:20:00,
2013-03-21 15:25:00,56.8,-99.9,29.98,SW,230,0.0,0.0,-999,-99.99,,,-99.99,,2013-03-21 22:25:00,
2013-03-21 15:30:00,57.0,-99.9,29.98,West,262,8.7,8.7,-999,-99.99,,,-99.99,,2013-03-21 22:30:00,
2013-03-21 15:35:00,57.0,-99.9,29.98,NNE,32,0.0,0.0,-999,-99.99,,,-99.99,,2013-03-21 22:35:00,
2013-03-21 15:40:00,57.4,-99.9,29.98,WNW,286,8.7,20.6,-999,-99.99,,,-99.99,,2013-03-21 22:40:00,
2013-03-21 15:45:00,57.4,-99.9,29.97,SW,215,9.0,12.2,-999,-99.99,,,-99.99,,2013-03-21 22:45:00,
2013-03-21 15:50:00,57.6,-99.9,29.97,SW,230,7.4,17.1,-999,-99.99,,,-99.99,,2013-03-21 22:50:00,
2013-03-21 16:00:00,57.9,-99.9,29.97,NW,317,0.0,0.0,-999,-99.99,,,-99.99,,2013-03-21 23:00:00,
2013-03-21 16:05:00,58.1,-99.9,29.97,West,263,7.1,14.8,-999,-99.99,,,-99.99,,2013-03-21 23:05:00,
2013-03-21 16:10:00,57.8,-99.9,29.97,West,280,0.0,0.0,-999,-99.99,,,-99.99,,2013-03-21 23:10:00,
2013-03-21 16:15:00,58.0,-99.9,29.97,WNW,293,0.0,7.2,-999,-99.99,,,-99.99,,2013-03-21 23:15:00,
2013-03-21 16:20:00,58.3,-99.9,29.97,WSW,247,11.9,14.5,-999,-99.99,,,-99.99,,2013-03-21 23:20:00,
2013-03-21 16:30:00,58.5,-99.9,29.97,WNW,286,0.0,8.4,-999,-99.99,,,-99.99,,2013-03-21 23:30:00,
2013-03-21 16:35:00,58.5,-99.9,29.97,SW,224,0.0,7.7,-999,-99.99,,,-99.99,,2013-03-21 23:35:00,
2013-03-21 16:40:00,58.4,-99.9,29.97,SW,224,0.0,11.7,-999,-99.99,,,-99.99,,2013-03-21 23:40:00,
2013-03-21 16:45:00,58.7,-99.9,29.97,WSW,256,9.0,21.7,-999,-99.99,,,-99.99,,2013-03-21 23:45:00,
2013-03-21 16:50:00,58.8,-99.9,29.97,West,273,0.0,11.1,-999,-99.99,,,-99.99,,2013-03-21 23:50:00,
2013-03-21 17:00:00,58.8,-99.9,29.97,West,263,0.0,0.0,-999,-99.99,,,-99.99,,2013-03-22 00:00:00,
2013-03-21 17:10:00,59.0,-99.9,29.96,West,265,10.9,11.4,-999,-99.99,,,-99.99,,2013-03-22 00:10:00,
2013-03-21 17:15:00,59.0,-99.9,29.96,West,278,14.0,14.0,-999,-99.99,,,-99.99,,2013-03-22 00:15:00,
2013-03-21 17:20:00,59.0,-99.9,29.96,West,275,0.0,16.9,-999,-99.99,,,-99.99,,2013-03-22 00:20:00,
2013-03-21 17:25:00,59.1,-99.9,29.96,WSW,252,0.0,14.3,-999,-99.99,,,-99.99,,2013-03-22 00:25:00,
2013-03-21 17:30:00,59.1,-99.9,29.96,NW,311,0.0,0.0,-999,-99.99,,,-99.99,,2013-03-22 00:30:00,
2013-03-21 17:40:00,59.2,-99.9,29.96,SW,218,0.0,5.5,-999,-99.99,,,-99.99,,2013-03-22 00:40:00,
2013-03-21 17:50:00,59.4,-99.9,29.96,WSW,245,10.9,14.8,-999,-99.99,,,-99.99,,2013-03-22 00:50:00,
2013-03-21 18:00:00,59.2,-99.9,29.96,West,269,0.0,0.0,-999,-99.99,,,-99.99,,2013-03-22 01:00:00,
2013-03-21 18:10:00,59.3,-99.9,29.96,SW,231,0.0,0.0,-999,-99.99,,,-99.99,,2013-03-22 01:10:00,
2013-03-21 18:20:00,59.4,-99.9,29.96,West,261,0.0,0.0,-999,-99.99,,,-99.99,,2013-03-22 01:20:00,
2013-03-21 18:30:00,59.4,-99.9,29.96,WSW,249,0.0,0.0,-999,-99.99,,,-99.99,,2013-03-22 01:30:00,
2013-03-21 18:40:00,59.4,-99.9,29.96,WSW,254,0.0,0.0,-999,-99.99,,,-99.99,,2013-03-22 01:40:00,
2013-03-21 18:50:00,59.1,-99.9,29.96,WSW,255,0.0,0.0,-999,-99.99,,,-99.99,,2013-03-22 01:50:00,
2013-03-21 18:55:00,59.0,-99.9,29.97,WSW,237,0.0,0.0,-999,-99.99,,,-99.99,,2013-03-22 01:55:00,
2013-03-21 19:00:00,58.8,-99.9,29.97,WSW,237,0.0,0.0,-999,-99.99,,,-99.99,,2013-03-22 02:00:00,
2013-03-21 19:10:00,58.4,-99.9,29.97,WSW,237,0.0,0.0,-999,-99.99,,,-99.99,,2013-03-22 02:10:00,
2013-03-21 19:20:00,58.4,-99.9,29.96,WSW,237,0.0,0.0,-999,-99.99,,,-99.99,,2013-03-22 02:20:00,
2013-03-21 19:30:00,58.2,-99.9,29.96,WSW,237,0.0,0.0,-999,-99.99,,,-99.99,,2013-03-22 02:30:00,
2013-03-21 19:35:00,58.4,-99.9,29.96,WSW,237,0.0,0.0,-999,-99.99,,,-99.99,,2013-03-22 02:35:00,
2013-03-21 19:40:00,58.1,-99.9,29.96,WSW,237,0.0,0.0,-999,-99.99,,,-99.99,,2013-03-22 02:40:00,
2013-03-21 19:50:00,58.1,-99.9,29.96,WSW,237,0.0,0.0,-999,-99.99,,,-99.99,,2013-03-22 02:50:00,
2013-03-21 20:00:00,57.5,-99.9,29.96,WSW,237,0.0,0.0,-999,-99.99,,,-99.99,,2013-03-22 03:00:00,
2013-03-21 20:10:00,57.1,-99.9,29.96,WSW,237,0.0,0.0,-999,-99.99,,,-99.99,,2013-03-22 03:10:00,
2013-03-21 20:20:00,57.1,-99.9,29.97,WSW,237,0.0,0.0,-999,-99.99,,,-99.99,,2013-03-22 03:20:00,
2013-03-21 20:25:00,57.2,-99.9,29.97,WSW,237,0.0,0.0,-999,-99.99,,,-99.99,,2013-03-22 03:25:00,
2013-03-21 20:30:00,56.9,-99.9,29.97,WSW,237,0.0,0.0,-999,-99.99,,,-99.99,,2013-03-22 03:30:00,
2013-03-21 20:40:00,56.8,-99.9,29.97,WSW,237,0.0,0.0,-999,-99.99,,,-99.99,,2013-03-22 03:40:00,
2013-03-21 20:50:00,56.1,-99.9,29.97,WSW,237,0.0,0.0,-999,-99.99,,,-99.99,,2013-03-22 03:50:00,
2013-03-21 21:00:00,56.6,-99.9,29.97,WSW,237,0.0,0.0,-999,-99.99,,,-99.99,,2013-03-22 04:00:00,
2013-03-21 21:05:00,56.7,-99.9,29.97,WSW,237,0.0,0.0,-999,-99.99,,,-99.99,,2013-03-22 04:05:00,
2013-03-21 21:10:00,56.7,-99.9,29.97,WSW,237,0.0,0.0,-999,-99.99,,,-99.99,,2013-03-22 04:10:00,
2013-03-21 21:15:00,56.4,-99.9,29.97,WSW,237,0.0,0.0,-999,-99.99,,,-99.99,,2013-03-22 04:15:00,
2013-03-21 21:20:00,56.1,-99.9,29.97,WSW,237,0.0,0.0,-999,-99.99,,,-99.99,,2013-03-22 04:20:00,
2013-03-21 21:30:00,55.0,-99.9,29.98,WSW,237,0.0,0.0,-999,-99.99,,,-99.99,,2013-03-22 04:30:00,
2013-03-21 21:40:00,55.6,-99.9,29.98,WSW,237,0.0,0.0,-999,-99.99,,,-99.99,,2013-03-22 04:40:00,
2013-03-21 21:50:00,55.3,-99.9,29.98,WSW,237,0.0,0.0,-999,-99.99,,,-99.99,,2013-03-22 04:50:00,
2013-03-21 22:00:00,54.8,-99.9,29.98,WSW,237,0.0,0.0,-999,-99.99,,,-99.99,,2013-03-22 05:00:00,
2013-03-21 22:10:00,54.6,-99.9,29.98,WSW,237,0.0,0.0,-999,-99.99,,,-99.99,,2013-03-22 05:10:00,
2013-03-21 22:20:00,54.7,-99.9,29.98,WSW,237,0.0,0.0,-999,-99.99,,,-99.99,,2013-03-22 05:20:00,
2013-03-21 22:30:00,53.6,-99.9,29.99,WSW,237,0.0,0.0,-999,-99.99,,,-99.99,,2013-03-22 05:30:00,
2013-03-21 22:40:00,54.0,-99.9,29.99,WSW,237,0.0,0.0,-999,-99.99,,,-99.99,,2013-03-22 05:40:00,
2013-03-21 22:50:00,53.4,-99.9,29.98,WSW,237,0.0,0.0,-999,-99.99,,,-99.99,,2013-03-22 05:50:00,
2013-03-21 23:00:00,53.5,-99.9,29.98,WSW,237,0.0,0.0,-999,-99.99,,,-99.99,,2013-03-22 06:00:00,
2013-03-21 23:10:00,53.2,-99.9,29.98,WSW,237,0.0,0.0,-999,-99.99,,,-99.99,,2013-03-22 06:10:00,
2013-03-21 23:20:00,52.5,-99.9,29.98,WSW,237,0.0,0.0,-999,-99.99,,,-99.99,,2013-03-22 06:20:00,
2013-03-21 23:30:00,52.1,-99.9,29.99,WSW,237,0.0,0.0,-999,-99.99,,,-99.99,,2013-03-22 06:30:00,
2013-03-21 23:40:00,51.5,-99.9,29.98,WSW,237,0.0,0.0,-999,-99.99,,,-99.99,,2013-03-22 06:40:00,
2013-03-21 23:50:00,51.8,-99.9,29.98,WSW,237,0.0,0.0,-999,-99.99,,,-99.99,,2013-03-22 06:50:00,